Tracking 19176 objects as of 27-May-2018
HD Live streaming from Space Station
objects crossing your sky now

H-2A R/B

Track H-2A R/B now!
10-day predictions


NORAD ID: 36105
Int'l Code: 2009-066B
Perigee: 510.8 km
Apogee: 551.7 km
Inclination: 97.3 °
Period: 95.1 minutes
Semi major axis: 6902 km
RCS: Unknown
Launch date: November 28, 2009
Source: Japan (JPN)
Launch site: TANEGASHIMA SPACE CENTER (TNSTA)

Note: This is a ROCKET BODY
aabbcc
Your satellite tracking list
Your tracking list is empty




NASA's NSSDC Master Catalog

Two Line Element Set (TLE):
1 36105U 09066B   18109.84134396 0.00000800  00000-0  43719-4 0    02
2 36105  97.3047 134.5771 0029660 359.9296   0.0702 15.13961431    04
Source of the keplerian elements: McCants